Weather History for Kansas City International, MO

Change the Weather History Date:

Saturday, November 23, 2013

  Actual Average Record
Temperature  
Mean Temperature 20 °F 40 °F  
Max Temperature 27 °F 49 °F 75 °F (1966)
Min Temperature 13 °F 31 °F 6 °F (1898)
Degree Days  
Heating Degree Days 45 25  
Month to date heating degree days 480 453  
Since 1 July heating degree days 828 813  
Cooling Degree Days 0 0  
Month to date cooling degree days 0 0  
Year to date cooling degree days 1345 1358  
Moisture  
Dew Point 10 °F    
Average Humidity 65    
Maximum Humidity 84    
Minimum Humidity 46    
Precipitation  
Precipitation 0.00 in 0.07 in 1.47 in (1931)
Month to date precipitation 1.43 1.68  
Year to date precipitation 33.68 36.86  
Snow  
Snow 0.00 in 0.00 in 0.70 in (1983)
Month to date snowfall 0.0 0.6  
Since 1 July snowfall 0.0 0.8  
Since 1 September snowfall 0.0 0.8  
Snow Depth 0.00 in    
Sea Level Pressure  
Sea Level Pressure 30.77 in    
Wind  
Wind Speed 11 mph (North)    
Max Wind Speed 22 mph    
Max Gust Speed 26 mph    
Visibility 10 miles    
Events      
T = Trace of Precipitation, MM = Missing Value Source: NWS Daily Summary

Daily Weather History Graph

Daily Weather History Graph

Search for Another Location

Airport:

Trip Planner

Search our weather history database for the weather conditions in past years. The results will help you decide how hot, cold, wet, or windy it might be!

Date:

Astronomy

Nov. 23, 2013 Rise Set
Actual Time 7:11 AM CST 4:58 PM CST
Civil Twilight 6:42 AM CST 5:28 PM CST
Nautical Twilight 6:09 AM CST 6:01 PM CST
Astronomical Twilight 5:37 AM CST 6:33 PM CST
Moon 10:27 PM CST (11/23) 11:29 AM CST (11/23)
Length of Visible Light 10h 45m
Length of Day
9h 47m
Waning Gibbous, 69% of the Moon is Illuminated
Nov 23
Waning Gibbous
Nov 25
Last Quarter
Dec 2
New
Dec 9
First Quarter
Dec 17
Full

Hourly Weather History & Observations

Time (CST) Temp. Windchill Dew Point Humidity Pressure Visibility Wind Dir Wind Speed Gust Speed Precip Events Conditions
12:53 AM 21.9 °F 13.4 °F 17.1 °F 82% 30.64 in 10.0 mi NNW 6.9 mph - N/A   Overcast
1:53 AM 23.0 °F 15.8 °F 16.0 °F 74% 30.65 in 10.0 mi NNW 5.8 mph - N/A   Mostly Cloudy
2:53 AM 23.0 °F - 17.1 °F 78% 30.65 in 10.0 mi Calm Calm - N/A   Overcast
3:53 AM 24.1 °F 17.0 °F 16.0 °F 71% 30.67 in 10.0 mi NW 5.8 mph - N/A   Overcast
4:53 AM 25.0 °F 13.1 °F 16.0 °F 69% 30.68 in 10.0 mi North 13.8 mph - N/A   Overcast
5:53 AM 24.1 °F 13.1 °F 15.1 °F 69% 30.70 in 10.0 mi North 11.5 mph - N/A   Overcast
6:53 AM 23.0 °F 9.6 °F 12.9 °F 65% 30.73 in 10.0 mi NNE 16.1 mph - N/A   Overcast
7:53 AM 21.9 °F 9.8 °F 12.0 °F 66% 30.77 in 10.0 mi North 12.7 mph 20.7 mph N/A   Overcast
8:53 AM 21.9 °F 8.2 °F 12.9 °F 68% 30.79 in 10.0 mi North 16.1 mph - N/A   Overcast
9:53 AM 23.0 °F 9.6 °F 6.1 °F 48% 30.82 in 10.0 mi North 16.1 mph 26.5 mph N/A   Overcast
10:53 AM 24.1 °F 12.5 °F 10.9 °F 57% 30.82 in 10.0 mi North 12.7 mph - N/A   Mostly Cloudy
11:53 AM 25.0 °F 14.8 °F 8.1 °F 49% 30.82 in 10.0 mi North 10.4 mph - N/A   Mostly Cloudy
12:53 PM 25.0 °F 12.6 °F 6.1 °F 45% 30.81 in 10.0 mi North 15.0 mph 24.2 mph N/A   Mostly Cloudy
1:53 PM 27.0 °F 14.7 °F 8.1 °F 45% 30.79 in 10.0 mi North 16.1 mph 23.0 mph N/A   Mostly Cloudy
2:53 PM 24.1 °F 13.1 °F 6.1 °F 46% 30.80 in 10.0 mi North 11.5 mph - N/A   Mostly Cloudy
3:53 PM 23.0 °F 11.1 °F 7.0 °F 50% 30.81 in 10.0 mi North 12.7 mph - N/A   Mostly Cloudy
4:53 PM 21.0 °F 9.3 °F 6.1 °F 53% 30.81 in 10.0 mi North 11.5 mph - N/A   Mostly Cloudy
5:53 PM 19.0 °F 10.0 °F 7.0 °F 59% 30.81 in 10.0 mi North 6.9 mph - N/A   Scattered Clouds
6:53 PM 18.0 °F 6.9 °F 7.0 °F 62% 30.81 in 10.0 mi North 9.2 mph - N/A   Scattered Clouds
7:53 PM 17.1 °F 5.8 °F 6.1 °F 62% 30.81 in 10.0 mi NE 9.2 mph - N/A   Mostly Cloudy
8:53 PM 16.0 °F 3.6 °F 6.1 °F 65% 30.80 in 10.0 mi NE 10.4 mph - N/A   Scattered Clouds
9:53 PM 15.1 °F 3.3 °F 3.9 °F 61% 30.81 in 10.0 mi NE 9.2 mph - N/A   Scattered Clouds
10:53 PM 14.0 °F 2.0 °F 5.0 °F 67% 30.80 in 10.0 mi NNE 9.2 mph - N/A   Scattered Clouds
11:53 PM 12.9 °F 3.8 °F 5.0 °F 71% 30.80 in 10.0 mi NNE 5.8 mph - N/A   Partly Cloudy